This demonstration page uses our WeatherBlox Daily Observations layout. Learn more.

Left ArrowRight Arrow

Hourly Observations for November 11, 2021

Temp ( °F °C ) Dew Point ( °F °C ) Humidity (%) Winds ( mph kmh ) Pressure ( in mb ) Visibility ( mi km ) Precip ( " mm )
12:53 am 00:53 Clear 29 -1.7 15 -9.4 56 56 WSW 8 13 30.19 1023 10 16 0.00 0.00
1:53 am 01:53 Clear 27 -2.8 16 -8.9 63 63 SW 13 20 30.22 1023 10 16 0.00 0.00
2:53 am 02:53 Clear 27 -2.8 15 -9.4 61 61 SW 15 24 30.23 1024 10 16 0.00 0.00
3:53 am 03:53 Clear 26 -3.3 15 -9.4 63 63 SW 13 20 30.23 1024 10 16 0.00 0.00
4:53 am 04:53 Clear 24 -4.4 15 -9.4 68 68 SW 14 22 30.24 1024 10 16 0.00 0.00
5:53 am 05:53 Clear 24 -4.4 14 -10 65 65 SW 15 24 30.26 1025 10 16 0.00 0.00
6:53 am 06:53 Clear 21 -6.1 14 -10 74 74 SW 14 22 30.26 1025 10 16 0.00 0.00
7:53 am 07:53 Sunny 20 -6.7 13 -10.6 74 74 WSW 8 13 30.27 1025 10 16 0.00 0.00
8:53 am 08:53 Sunny 29 -1.7 17 -8.3 61 61 SW 10 17 30.26 1025 10 16 0.00 0.00
9:53 am 09:53 Sunny 32 0 16 -8.9 52 52 WSW 12 19 30.29 1026 10 16 0.00 0.00
10:53 am 10:53 Sunny 34 1.1 16 -8.9 48 48 WSW 12 19 30.28 1026 10 16 0.00 0.00
11:53 am 11:53 Sunny 38 3.3 16 -8.9 41 41 WSW 9 15 30.28 1025 10 16 0.00 0.00
12:53 pm 12:53 Mostly Sunny 41 5 16 -8.9 36 36 WSW 10 17 30.28 1025 10 16 0.00 0.00
1:53 pm 13:53 Sunny 43 6.1 17 -8.3 35 35 WNW 8 13 30.28 1026 10 16 0.00 0.00
2:53 pm 14:53 Sunny 44 6.7 16 -8.9 32 32 NW 9 15 30.29 1026 10 16 0.00 0.00
3:53 pm 15:53 Sunny 42 5.6 16 -8.9 35 35 NW 10 17 30.32 1027 10 16 0.00 0.00
4:53 pm 16:53 Clear 34 1.1 16 -8.9 48 48 WNW 7 11 30.36 1028 10 16 0.00 0.00
5:53 pm 17:53 Clear 31 -0.6 16 -8.9 54 54 NE 7 11 30.39 1029 10 16 0.00 0.00
6:53 pm 18:53 Clear 29 -1.7 19 -7.2 66 66 ENE 7 11 30.42 1030 10 16 0.00 0.00
7:53 pm 19:53 Clear 28 -2.2 19 -7.2 69 69 E 12 19 30.43 1031 10 16 0.00 0.00
8:53 pm 20:53 Clear 21 -6.1 17 -8.3 85 85 E 6 9 30.43 1031 10 16 0.00 0.00
9:53 pm 21:53 Clear 20 -6.7 16 -8.9 85 85 ENE 8 13 30.44 1031 10 16 0.00 0.00
10:53 pm 22:53 Clear 20 -6.7 16 -8.9 85 85 E 6 9 30.45 1031 10 16 0.00 0.00
11:53 pm 23:53 Clear 18 -7.8 14 -10 84 84 ENE 5 7 30.44 1031 10 16 0.00 0.00

Powered by AerisWeather